GW4797 Weather Reports


time (UTC)temp
C
wind
direction
speed
KPH
gust
KPH
rain 1hr
cm
rain 24hr
cm
rain mn
cm
humidity
%
barometer
mb
20260506003004 20 194 3.2 8.0 0.00 0.00 0.00 58 1008.5
20260506002503 20 225 1.6 8.0 0.00 0.00 0.00 57 1008.4
20260506002004 20 196 1.6 8.0 0.00 0.00 0.00 57 1008.3
20260506001506 20 220 0.0 6.4 0.00 0.00 0.00 57 1008.1
20260506001003 20 213 3.2 6.4 0.00 0.00 0.00 57 1008.1
20260506000505 20 227 1.6 6.4 0.00 0.00 0.00 57 1007.9
20260506000013 20 259 3.2 9.7 0.00 0.00 0.00 57 1008.0
20260505235504 20 237 3.2 9.7 0.00 0.00 0.00 57 1008.0
20260505235006 20 261 4.8 9.7 0.00 0.00 0.00 57 1008.0
20260505234506 20 288 3.2 8.0 0.00 0.00 0.00 57 1007.8
20260505234004 20 320 1.6 8.0 0.00 0.00 0.00 57 1007.8
20260505233504 20 263 3.2 8.0 0.00 0.00 0.00 57 1007.8
20260505233008 20 256 3.2 12.9 0.00 0.00 0.00 56 1007.9
20260505232506 20 278 4.8 14.5 0.00 0.00 0.00 57 1008.0
20260505232003 20 267 8.0 14.5 0.00 0.00 0.00 56 1008.0
20260505231510 20 270 4.8 11.3 0.00 0.00 0.00 56 1008.0
20260505231006 20 289 3.2 9.7 0.00 0.00 0.00 56 1007.9
20260505230503 21 279 3.2 11.3 0.00 0.00 0.00 56 1008.0
20260505230006 21 283 3.2 12.9 0.00 0.00 0.00 54 1008.0
20260505225503 21 267 6.4 12.9 0.00 0.00 0.00 53 1008.0
20260505225003 21 252 4.8 12.9 0.00 0.00 0.00 52 1008.0
20260505224510 21 254 4.8 27.4 0.00 0.00 0.00 52 1008.2
20260505224005 21 250 12.9 27.4 0.00 0.00 0.00 52 1008.3
20260505223505 21 277 11.3 27.4 0.00 0.00 0.00 51 1008.3
20260505223009 22 267 4.8 12.9 0.00 0.00 0.00 48 1008.3
20260505222505 22 253 1.6 12.9 0.00 0.00 0.00 47 1008.0
20260505222007 22 267 3.2 20.9 0.00 0.00 0.00 46 1008.0
20260505221508 22 203 4.8 20.9 0.00 0.00 0.00 46 1008.2
20260505221004 22 253 6.4 19.3 0.00 0.00 0.00 45 1008.0
20260505220503 22 248 8.0 22.5 0.00 0.00 0.00 45 1008.1
20260505220011 22 234 9.7 25.7 0.00 0.00 0.00 45 1008.0
20260505215507 22 254 9.7 25.7 0.00 0.00 0.00 45 1008.0
20260505215006 22 223 11.3 20.9 0.00 0.00 0.00 44 1007.9
20260505214510 22 247 6.4 14.5 0.00 0.00 0.00 46 1007.8
20260505214006 22 208 3.2 16.1 0.00 0.00 0.00 46 1007.7
20260505213506 22 231 6.4 16.1 0.00 0.00 0.00 45 1007.5
20260505213019 22 235 4.8 16.1 0.00 0.00 0.00 46 1007.4
20260505212508 22 188 4.8 14.5 0.00 0.00 0.00 46 1007.3
20260505212005 22 281 4.8 14.5 0.00 0.00 0.00 46 1007.2
20260505211512 22 229 4.8 16.1 0.00 0.00 0.00 46 1007.1
20260505211005 22 240 6.4 17.7 0.00 0.00 0.00 46 1007.2
20260505210503 22 249 6.4 17.7 0.00 0.00 0.00 46 1007.3
20260505210008 22 282 4.8 14.5 0.00 0.00 0.00 47 1007.3
20260505205508 22 252 6.4 16.1 0.00 0.00 0.00 47 1007.3
20260505205007 22 290 8.0 20.9 0.00 0.00 0.00 49 1007.4
20260505204513 22 237 8.0 20.9 0.00 0.00 0.00 47 1007.5
20260505204010 22 286 9.7 32.2 0.00 0.00 0.00 48 1007.5
20260505203505 22 238 16.1 30.6 0.00 0.00 0.00 44 1007.5
20260505203026 23 252 12.9 29.0 0.00 0.00 0.00 39 1007.4
20260505202505 23 207 14.5 27.4 0.00 0.00 0.00 39 1007.2
20260505202008 23 198 9.7 24.1 0.00 0.00 0.00 39 1007.0
20260505201518 23 217 8.0 29.0 0.00 0.00 0.00 38 1007.0
20260505201005 24 202 14.5 29.0 0.00 0.00 0.00 38 1007.1
20260505200505 24 239 11.3 25.7 0.00 0.00 0.00 37 1006.9
20260505200014 24 194 16.1 24.1 0.00 0.00 0.00 38 1006.9
20260505195507 24 222 8.0 24.1 0.00 0.00 0.00 38 1007.0
20260505195006 24 252 9.7 24.1 0.00 0.00 0.00 37 1007.1
20260505194512 24 277 12.9 25.7 0.00 0.00 0.00 38 1007.1
20260505194007 24 180 9.7 32.2 0.00 0.00 0.00 36 1007.1
20260505193506 24 252 12.9 32.2 0.00 0.00 0.00 34 1006.9
20260505193018 24 216 14.5 32.2 0.00 0.00 0.00 35 1007.0
20260505192506 25 207 14.5 32.2 0.00 0.00 0.00 34 1006.9
20260505192012 25 232 14.5 32.2 0.00 0.00 0.00 35 1007.1
20260505191515 25 252 17.7 32.2 0.00 0.00 0.00 34 1006.9
20260505191009 25 226 16.1 27.4 0.00 0.00 0.00 36 1006.8
20260505190512 25 205 14.5 29.0 0.00 0.00 0.00 36 1007.0
20260505190026 25 209 16.1 29.0 0.00 0.00 0.00 36 1006.9
20260505185507 25 227 8.0 25.7 0.00 0.00 0.00 37 1006.8
20260505185005 25 168 11.3 25.7 0.00 0.00 0.00 39 1006.8
20260505184518 25 283 9.7 37.0 0.00 0.00 0.00 38 1006.8
20260505184006 25 235 9.7 37.0 0.00 0.00 0.00 38 1006.8
20260505183505 25 192 14.5 32.2 0.00 0.00 0.00 38 1006.9
20260505183016 25 255 14.5 32.2 0.00 0.00 0.00 37 1007.1
20260505182506 24 260 6.4 33.8 0.00 0.00 0.00 40 1007.2
20260505182012 24 195 16.1 33.8 0.00 0.00 0.00 37 1007.4
20260505181519 24 161 14.5 37.0 0.00 0.00 0.00 38 1007.3
20260505181007 25 195 19.3 37.0 0.00 0.00 0.00 38 1007.5
20260505180512 25 257 16.1 32.2 0.00 0.00 0.00 39 1007.7
20260505180021 24 210 14.5 32.2 0.00 0.00 0.00 40 1007.7
20260505175509 24 179 11.3 20.9 0.00 0.00 0.00 41 1007.6
20260505175014 24 223 8.0 19.3 0.00 0.00 0.00 42 1007.7
20260505174519 24 217 8.0 20.9 0.00 0.00 0.00 42 1007.7
20260505174012 24 221 9.7 20.9 0.00 0.00 0.00 42 1007.8
20260505173507 24 234 8.0 33.8 0.00 0.00 0.00 42 1007.7
20260505173034 23 254 9.7 33.8 0.00 0.00 0.00 42 1008.0
20260505172506 23 208 14.5 22.5 0.00 0.00 0.00 42 1008.2
20260505172008 23 215 11.3 35.4 0.00 0.00 0.00 43 1008.1
20260505171521 23 243 16.1 35.4 0.00 0.00 0.00 44 1008.1
20260505171003 23 221 14.5 32.2 0.00 0.00 0.00 44 1008.1
20260505170504 23 259 12.9 35.4 0.00 0.00 0.00 44 1008.2
20260505170005 23 239 8.0 35.4 0.00 0.00 0.00 45 1008.2
20260505165504 23 219 9.7 30.6 0.00 0.00 0.00 45 1008.2
20260505165003 23 179 16.1 33.8 0.00 0.00 0.00 43 1008.3
20260505164504 23 184 17.7 33.8 0.00 0.00 0.00 42 1008.1
20260505164002 23 184 11.3 19.3 0.00 0.00 0.00 46 1008.0
20260505163508 23 206 11.3 20.9 0.00 0.00 0.00 45 1008.0
20260505163010 23 232 11.3 29.0 0.00 0.00 0.00 47 1008.1
20260505162503 23 232 14.5 29.0 0.00 0.00 0.00 46 1008.2
20260505162008 23 243 14.5 29.0 0.00 0.00 0.00 47 1008.4
20260505161515 23 271 8.0 17.7 0.00 0.00 0.00 49 1008.5
20260505161007 22 257 8.0 27.4 0.00 0.00 0.00 48 1008.8
20260505160510 22 191 9.7 33.8 0.00 0.00 0.00 47 1008.8
20260505153010 23 196 19.3 30.6 0.00 0.00 0.00 46 1008.9
20260505152504 22 180 14.5 29.0 0.00 0.00 0.00 47 1009.0
20260505152006 22 183 14.5 29.0 0.00 0.00 0.00 48 1009.0
20260505151513 23 168 14.5 29.0 0.00 0.00 0.00 46 1009.0
20260505151007 23 179 12.9 29.0 0.00 0.00 0.00 48 1009.0
20260505150507 22 221 14.5 25.7 0.00 0.00 0.00 48 1009.0
20260505140508 20 180 4.8 19.3 0.00 0.00 0.00 56 1009.0
20260505125011 16 78 0.0 3.2 0.00 0.00 0.00 72 1009.4
20260505124522 15 78 0.0 3.2 0.00 0.00 0.00 74 1009.4
20260505124009 15 78 0.0 6.4 0.00 0.00 0.00 75 1009.5
20260505123509 15 78 0.0 9.7 0.00 0.00 0.00 73 1009.6
20260505123025 15 76 3.2 9.7 0.00 0.00 0.00 74 1009.6
20260505122509 15 91 3.2 6.4 0.00 0.00 0.00 75 1009.7
20260505122004 15 117 1.6 4.8 0.00 0.00 0.00 74 1009.8
20260505121507 15 82 3.2 4.8 0.00 0.00 0.00 75 1009.8
20260505121004 15 86 3.2 4.8 0.00 0.00 0.00 75 1009.8
20260505120505 15 92 0.0 3.2 0.00 0.00 0.00 76 1009.9
20260505120042 15 142 0.0 3.2 0.00 0.00 0.00 76 1009.9
20260505115504 15 142 0.0 3.2 0.00 0.00 0.00 75 1009.8
20260505115006 14 142 0.0 3.2 0.00 0.00 0.00 78 1009.8
20260505114518 14 142 0.0 3.2 0.00 0.00 0.00 78 1009.6
20260505114006 14 98 0.0 3.2 0.00 0.00 0.00 78 1009.6
20260505113508 14 98 0.0 3.2 0.00 0.00 0.00 79 1009.5
20260505113021 14 98 0.0 3.2 0.00 0.00 0.00 79 1009.4
20260505112508 13 98 0.0 3.2 0.00 0.00 0.00 77 1009.4
20260505112008 13 99 1.6 3.2 0.00 0.00 0.00 76 1009.3
20260505111528 13 99 0.0 3.2 0.00 0.00 0.00 76 1009.2
20260505111010 13 99 0.0 3.2 0.00 0.00 0.00 75 1009.3
20260505110507 13 79 0.0 3.2 0.00 0.00 0.00 74 1009.3
20260505102015 13 241 1.6 8.0 0.00 0.00 0.00 75 1009.0
20260505101526 12 182 0.0 8.0 0.00 0.00 0.00 77 1009.0
20260505101010 13 136 3.2 4.8 0.00 0.00 0.00 75 1009.0
20260505100510 12 74 0.0 4.8 0.00 0.00 0.00 73 1009.0
20260505100028 12 254 3.2 6.4 0.00 0.00 0.00 73 1009.2
20260505095508 13 78 0.0 6.4 0.00 0.00 0.00 71 1009.0
20260505095008 13 191 1.6 3.2 0.00 0.00 0.00 70 1009.0
20260505094513 13 172 0.0 3.2 0.00 0.00 0.00 70 1009.0
20260505094006 13 172 0.0 9.7 0.00 0.00 0.00 70 1008.9
20260505093505 13 172 1.6 9.7 0.00 0.00 0.00 70 1008.7
20260505093018 13 96 3.2 6.4 0.00 0.00 0.00 69 1008.6
20260505092507 13 109 1.6 9.7 0.00 0.00 0.00 69 1008.5
20260505092009 13 117 3.2 9.7 0.00 0.00 0.00 68 1008.6
20260505091528 13 105 3.2 6.4 0.00 0.00 0.00 68 1008.5
20260505091009 13 114 1.6 4.8 0.00 0.00 0.00 68 1008.5
20260505090508 13 122 3.2 6.4 0.00 0.00 0.00 68 1008.5
20260505090039 13 127 3.2 6.4 0.00 0.00 0.00 69 1008.4
20260505085515 13 91 1.6 6.4 0.00 0.00 0.00 69 1008.5
20260505085008 13 160 3.2 6.4 0.00 0.00 0.00 69 1008.6
20260505084529 13 123 3.2 4.8 0.00 0.00 0.00 69 1008.5
20260505084007 13 97 1.6 6.4 0.00 0.00 0.00 69 1008.5
20260505083507 13 155 3.2 9.7 0.00 0.00 0.00 68 1008.5
20260505083018 13 119 1.6 9.7 0.00 0.00 0.00 68 1008.5
20260505082507 13 132 3.2 6.4 0.00 0.00 0.00 69 1008.6
20260505082008 13 122 3.2 9.7 0.00 0.00 0.00 68 1008.5
20260505081510 13 94 3.2 11.3 0.00 0.00 0.00 68 1008.5
20260505081004 13 90 3.2 11.3 0.00 0.00 0.00 68 1008.5
20260505080504 13 109 3.2 6.4 0.00 0.00 0.00 68 1008.5
20260505080003 13 123 3.2 6.4 0.00 0.00 0.00 68 1008.5
20260505075502 13 112 3.2 6.4 0.00 0.00 0.00 67 1008.4
20260505075003 13 133 1.6 6.4 0.00 0.00 0.00 68 1008.4
20260505074507 13 123 3.2 9.7 0.00 0.00 0.00 67 1008.3
20260505074005 13 126 3.2 9.7 0.00 0.00 0.00 69 1008.3
20260505073506 13 109 4.8 8.0 0.00 0.00 0.00 70 1008.2
20260505073027 13 117 3.2 8.0 0.00 0.00 0.00 69 1008.3
20260505072511 13 88 3.2 6.4 0.00 0.00 0.00 72 1008.2
20260505072007 13 146 1.6 4.8 0.00 0.00 0.00 72 1008.2
20260505071520 13 86 0.0 3.2 0.00 0.00 0.00 73 1008.2
20260505071003 13 86 0.0 3.2 0.00 0.00 0.00 72 1008.2
20260505070505 14 86 1.6 6.4 0.00 0.00 0.00 72 1008.2
20260505070006 14 78 1.6 9.7 0.00 0.00 0.00 70 1008.2
20260505065503 14 78 3.2 9.7 0.00 0.00 0.00 69 1008.1
20260505065003 15 107 3.2 4.8 0.00 0.00 0.00 63 1008.2
20260505064518 15 109 1.6 4.8 0.00 0.00 0.00 62 1008.3
20260505064005 15 78 1.6 3.2 0.00 0.00 0.00 61 1008.5
20260505063505 15 78 0.0 4.8 0.00 0.00 0.00 60 1008.5
20260505063012 15 78 0.0 6.4 0.00 0.00 0.00 60 1008.5
20260505062505 15 97 3.2 6.4 0.00 0.00 0.00 60 1008.5
20260505062006 15 94 3.2 6.4 0.00 0.00 0.00 59 1008.5
20260505061530 15 106 0.0 6.4 0.00 0.00 0.00 59 1008.3
20260505061007 16 114 3.2 4.8 0.00 0.00 0.00 58 1008.4
20260505060508 16 90 1.6 4.8 0.00 0.00 0.00 57 1008.5
20260505060022 16 108 1.6 6.4 0.00 0.00 0.00 55 1008.5
20260505055503 17 100 3.2 6.4 0.00 0.00 0.00 55 1008.6
20260505055003 17 115 3.2 4.8 0.00 0.00 0.00 55 1008.6
20260505054505 17 113 1.6 4.8 0.00 0.00 0.00 54 1008.6
20260505054012 17 110 3.2 4.8 0.00 0.00 0.00 54 1008.7
20260505053504 17 111 1.6 4.8 0.00 0.00 0.00 54 1008.7
20260505053010 17 147 1.6 4.8 0.00 0.00 0.00 54 1008.7
20260505052503 17 134 1.6 4.8 0.00 0.00 0.00 54 1008.8
20260505052011 17 132 3.2 4.8 0.00 0.00 0.00 53 1008.8
20260505051517 17 130 1.6 6.4 0.00 0.00 0.00 52 1008.8
20260505051009 17 184 1.6 6.4 0.00 0.00 0.00 52 1008.8
20260505050506 17 144 0.0 6.4 0.00 0.00 0.00 52 1008.8
20260505041514 17 142 3.2 9.7 0.00 0.00 0.00 49 1008.6
20260505041006 17 167 3.2 6.4 0.00 0.00 0.00 49 1008.6
20260505040506 18 148 0.0 8.0 0.00 0.00 0.00 49 1008.7
20260505040018 18 126 4.8 8.0 0.00 0.00 0.00 48 1008.6
20260505035507 18 168 3.2 8.0 0.00 0.00 0.00 48 1008.5
20260505035007 18 133 4.8 8.0 0.00 0.00 0.00 48 1008.5
20260505034526 18 140 3.2 8.0 0.00 0.00 0.00 48 1008.4
20260505034011 18 160 3.2 9.7 0.00 0.00 0.00 47 1008.4
20260505033510 18 205 3.2 9.7 0.00 0.00 0.00 47 1008.3
20260505033006 18 159 3.2 9.7 0.00 0.00 0.00 47 1008.3
20260505032503 18 171 3.2 8.0 0.00 0.00 0.00 47 1008.3
20260505032005 18 147 3.2 9.7 0.00 0.00 0.00 46 1008.3
20260505031530 18 169 6.4 9.7 0.00 0.00 0.00 47 1008.2
20260505031007 18 142 3.2 9.7 0.00 0.00 0.00 47 1008.2
20260505030508 18 176 3.2 9.7 0.00 0.00 0.00 46 1008.4
20260505030018 18 161 3.2 11.3 0.00 0.00 0.00 46 1008.4
20260505025507 18 158 3.2 11.3 0.00 0.00 0.00 46 1008.2
20260505025009 18 116 4.8 11.3 0.00 0.00 0.00 47 1008.2
20260505024533 18 138 3.2 11.3 0.00 0.00 0.00 47 1008.2
20260505024007 18 173 4.8 11.3 0.00 0.00 0.00 46 1008.3
20260505023508 18 153 1.6 9.7 0.00 0.00 0.00 46 1008.4
20260505023028 18 166 4.8 9.7 0.00 0.00 0.00 46 1008.3
20260505022508 18 117 3.2 8.0 0.00 0.00 0.00 45 1008.3
20260505022012 19 167 3.2 8.0 0.00 0.00 0.00 46 1008.3
20260505021513 19 178 3.2 6.4 0.00 0.00 0.00 45 1008.4
20260505021011 19 128 3.2 8.0 0.00 0.00 0.00 45 1008.5
20260505020506 19 146 3.2 8.0 0.00 0.00 0.00 45 1008.5
20260505020027 19 182 3.2 8.0 0.00 0.00 0.00 45 1008.5
20260505015513 19 148 3.2 12.9 0.00 0.00 0.00 45 1008.5
20260505015010 19 202 4.8 12.9 0.00 0.00 0.00 45 1008.5
20260505014527 19 168 1.6 11.3 0.00 0.00 0.00 44 1008.5
20260505014008 19 151 1.6 11.3 0.00 0.00 0.00 44 1008.3
20260505013509 19 224 6.4 12.9 0.00 0.00 0.00 44 1008.2
20260505013025 19 214 6.4 12.9 0.00 0.00 0.00 44 1008.2
20260505012509 20 166 4.8 16.1 0.00 0.00 0.00 43 1008.2
20260505012009 20 206 8.0 16.1 0.00 0.00 0.00 43 1008.1
20260505011533 20 168 6.4 16.1 0.00 0.00 0.00 44 1008.0
20260505011009 20 183 8.0 16.1 0.00 0.00 0.00 43 1008.0
20260505010503 20 191 3.2 22.5 0.00 0.00 0.00 43 1007.9
20260505010012 20 188 8.0 22.5 0.00 0.00 0.00 43 1007.9
20260505005506 20 206 6.4 17.7 0.00 0.00 0.00 43 1007.9
20260505005007 19 184 6.4 16.1 0.00 0.00 0.00 43 1007.8
20260505004537 19 175 4.8 16.1 0.00 0.00 0.00 44 1007.8
20260505004007 19 192 3.2 11.3 0.00 0.00 0.00 44 1007.7
20260505003511 19 137 4.8 11.3 0.00 0.00 0.00 43 1007.7